User: anonymous   Login
Location: Hurstbourne Priors
(51.2000°N, 1.3667°W)
Time: 12:50:21
(UTC+00:00)
Language:

NOSS 3-4 (A) - Orbit

View from above orbital plane
View from above orbital plane
View from above satellite
View from above satellite

Ground track
Ground track

The orbit data is extracted from the following two-line orbital elements,

1 31701U 07027A   20188.87138852 0.00000000  00000-0  00000-0 0    02
2 31701  63.3934 117.5011 0285461  20.1388 339.8612 13.40802969    00
Epoch (UTC): 06 July 2020 20:54:47
Eccentricity: 0.0285461
inclination: 63.3934°
perigee height: 892 km
apogee height: 1320 km
right ascension of ascending node: 117.5011°
argument of perigee: 20.1388°
revolutions per day: 13.40802969
mean anomaly at epoch: 339.8612°
orbit number at epoch: 0

The dashed part of the orbit path shows where the satellite is in the earth's shadow,  

DLR